Stations météo

réclame
Mon MeteoGroup
Girona/Costa Brava, Espagne (8184): Température de l'air & dewpoint: 14.04.2018 21:00:00 - 20.04.2018 21:00:00 (CEST)Girona/Costa Brava, Espagne (8184): Vitesse du vent: 14.04.2018 21:00:00 - 20.04.2018 21:00:00 (CEST)Girona/Costa Brava, Espagne (8184): Direction du vent: 14.04.2018 21:00:00 - 20.04.2018 21:00:00 (CEST)Girona/Costa Brava, Espagne (8184): reduced air pressure: 14.04.2018 21:00:00 - 20.04.2018 21:00:00 (CEST)Girona/Costa Brava, Espagne (8184): visibility: 14.04.2018 21:00:00 - 20.04.2018 21:00:00 (CEST)
Date & Time tt [°C] td [°C] ff [km/h] ff [knt] dd ppp [hPa] vv [km]
20.04.2018 21:00:00 - - - - - - -
20.04.2018 20:00:00 - - - - - - 30
20.04.2018 19:00:00 - - - - - - -
20.04.2018 18:00:00 21,9 11,7 18 10 S 1020,6 -
20.04.2018 17:00:00 23,5 12,4 18 10 S 1020,6 30
20.04.2018 16:00:00 24,6 13,1 15 8 SSW 1020,9 -
20.04.2018 15:00:00 24,8 12,6 11 6 SSE 1021,5 -
20.04.2018 14:00:00 24,3 13,5 8 4 S 1021,9 35
20.04.2018 13:00:00 23,5 11,4 5 3 WSW 1022,5 -
20.04.2018 12:00:00 22,6 12,3 4 2 SSW 1022,9 -
20.04.2018 11:00:00 20,6 12,1 0 0 N 1023,1 50
20.04.2018 10:00:00 17,1 11,6 4 2 ENE 1023,1 -
20.04.2018 09:00:00 13,6 10,7 0 0 N 1023,1 -
20.04.2018 08:00:00 9,6 9,0 0 0 N 1023,3 30
20.04.2018 07:00:00 7,9 7,3 4 2 NE 1023,4 -
20.04.2018 06:00:00 8,3 7,5 0 0 N 1023,2 -
20.04.2018 05:00:00 8,5 7,5 0 0 N 1023,4 20
20.04.2018 04:00:00 9,4 8,2 0 0 N 1023,4 -
20.04.2018 03:00:00 10,3 8,9 0 0 N 1023,7 -
20.04.2018 02:00:00 10,8 9,2 0 0 N 1024,2 20
20.04.2018 01:00:00 11,4 9,6 0 0 N 1024,3 -
20.04.2018 00:00:00 11,9 9,8 4 2 N 1024,5 -
19.04.2018 23:00:00 14,2 10,4 4 2 SSE 1024,7 30
19.04.2018 22:00:00 15,3 10,9 0 0 N 1024,1 -
19.04.2018 21:00:00 17,4 11,0 4 2 SSE 1023,4 -
19.04.2018 20:00:00 20,3 11,6 5 3 ESE 1022,9 30
19.04.2018 19:00:00 21,8 10,7 11 6 SE 1023,1 -
19.04.2018 18:00:00 22,9 10,9 18 10 SE 1023,1 -
19.04.2018 17:00:00 23,0 11,5 13 7 SE 1023,3 30
19.04.2018 16:00:00 24,4 11,8 13 7 E 1023,6 -
19.04.2018 15:00:00 24,2 11,7 13 7 E 1024,1 -
19.04.2018 14:00:00 23,9 11,1 9 5 ESE 1024,4 30
19.04.2018 13:00:00 22,7 11,3 15 8 NE 1024,7 -
19.04.2018 12:00:00 21,4 11,0 16 9 NNE 1025,3 -
19.04.2018 11:00:00 19,9 11,4 21 11 NNE 1025,4 30
19.04.2018 10:00:00 18,4 11,3 16 9 NNE 1025,4 -
19.04.2018 09:00:00 15,4 11,6 9 5 NNE 1025,3 -
19.04.2018 08:00:00 11,6 9,7 8 4 NNE 1025,3 -
19.04.2018 07:00:00 10,8 8,6 5 3 NW 1025,0 -
19.04.2018 06:00:00 12,7 8,2 5 3 NNW 1025,1 -
19.04.2018 05:00:00 10,4 8,5 0 0 N 1025,5 20
19.04.2018 04:00:00 10,3 8,1 5 3 NE 1025,2 -
19.04.2018 03:00:00 11,5 8,5 4 2 NE 1025,2 -
19.04.2018 02:00:00 13,3 9,0 2 1 N 1025,5 -
19.04.2018 01:00:00 14,5 9,8 4 2 ENE 1025,9 -
19.04.2018 00:00:00 15,2 8,2 5 3 N 1025,7 -
18.04.2018 23:00:00 16,2 9,1 9 5 NNW 1025,7 20
18.04.2018 22:00:00 16,8 9,9 11 6 N 1025,6 -
18.04.2018 21:00:00 18,5 10,6 11 6 N 1025,0 -
18.04.2018 20:00:00 20,9 11,3 4 2 SE 1024,4 -
18.04.2018 19:00:00 22,5 11,2 9 5 SSE 1024,6 -
18.04.2018 18:00:00 23,2 11,5 15 8 SE 1024,5 -
18.04.2018 17:00:00 24,3 12,2 21 11 SE 1024,0 40
18.04.2018 16:00:00 25,2 11,1 21 11 SE 1023,8 -
18.04.2018 15:00:00 25,5 11,7 16 9 SSE 1023,9 -
18.04.2018 14:00:00 26,2 9,4 8 4 SE 1024,0 40
18.04.2018 13:00:00 25,3 11,0 8 4 ENE 1024,6 -
18.04.2018 12:00:00 24,1 10,2 5 3 NE 1025,2 -
18.04.2018 11:00:00 22,2 10,6 8 4 NNE 1025,3 40
18.04.2018 10:00:00 20,3 13,4 5 3 ENE 1025,1 -
18.04.2018 09:00:00 14,4 11,4 0 0 N 1025,1 -
18.04.2018 08:00:00 10,1 9,2 4 2 NE 1025,0 60
18.04.2018 07:00:00 8,3 7,5 4 2 NE 1024,6 -
18.04.2018 06:00:00 8,6 7,8 0 0 N 1024,4 -
18.04.2018 05:00:00 9,2 8,4 0 0 N 1024,3 -
18.04.2018 04:00:00 8,7 7,5 0 0 N 1024,3 -
18.04.2018 03:00:00 9,9 8,5 0 0 N 1024,5 -
18.04.2018 02:00:00 10,7 9,1 8 4 NE 1024,6 -
18.04.2018 01:00:00 11,2 9,1 4 2 WNW 1024,4 -
18.04.2018 00:00:00 12,6 9,6 0 0 N 1024,2 -
17.04.2018 23:00:00 13,1 10,6 4 2 ENE 1023,9 30
17.04.2018 22:00:00 14,2 10,8 8 4 WNW 1023,5 -
17.04.2018 21:00:00 15,6 11,2 9 5 SSW 1022,8 -
17.04.2018 20:00:00 18,3 11,7 11 6 S 1021,9 40
17.04.2018 19:00:00 21,8 10,7 9 5 SSW 1021,4 -
17.04.2018 18:00:00 22,7 11,1 15 8 SSW 1020,9 -
17.04.2018 17:00:00 23,1 9,7 16 9 S 1020,9 40
17.04.2018 16:00:00 23,4 9,7 22 12 S 1020,8 -
17.04.2018 15:00:00 25,2 9,6 9 5 SE 1020,5 -
17.04.2018 14:00:00 24,6 9,5 5 3 SE 1020,6 40
17.04.2018 13:00:00 23,3 10,5 8 4 SSW 1021,3 -
17.04.2018 12:00:00 21,9 9,3 4 2 S 1021,7 -
17.04.2018 11:00:00 19,7 12,1 2 1 SSW 1021,9 40
17.04.2018 10:00:00 16,6 11,7 4 2 SE 1021,9 -
17.04.2018 09:00:00 13,0 10,5 2 1 SE 1021,6 -
17.04.2018 08:00:00 8,8 7,9 0 0 N 1021,1 40
17.04.2018 07:00:00 7,3 6,7 0 0 N 1020,5 -
17.04.2018 06:00:00 7,9 7,3 2 1 WSW 1020,1 -
17.04.2018 05:00:00 7,7 7,3 8 4 W 1020,0 -
17.04.2018 04:00:00 8,2 7,1 0 0 N 1019,6 -
17.04.2018 03:00:00 8,9 8,1 0 0 N 1019,4 -
17.04.2018 02:00:00 8,8 7,6 0 0 N 1019,4 -
17.04.2018 01:00:00 9,5 8,1 0 0 N 1018,7 -
17.04.2018 00:00:00 10,6 9,1 4 2 S 1018,4 -
16.04.2018 23:00:00 10,8 8,6 0 0 N 1017,7 -
16.04.2018 22:00:00 12,9 9,7 4 2 WSW 1017,2 -
16.04.2018 21:00:00 14,2 10,4 9 5 SSW 1016,6 -
16.04.2018 20:00:00 15,9 10,9 8 4 SSW 1015,8 -
16.04.2018 19:00:00 17,3 10,7 9 5 WSW 1015,4 -
16.04.2018 18:00:00 18,2 11,7 13 7 SSW 1014,8 -
16.04.2018 17:00:00 19,8 11,2 15 8 S 1014,1 -
16.04.2018 16:00:00 21,6 8,4 9 5 ESE 1013,6 -
16.04.2018 15:00:00 20,9 8,6 13 7 ENE 1013,4 -
16.04.2018 14:00:00 20,2 8,7 16 9 NE 1013,3 -
16.04.2018 13:00:00 20,3 10,8 16 9 NE 1013,5 -
16.04.2018 12:00:00 17,7 11,8 9 5 NNE 1013,6 -
16.04.2018 11:00:00 16,5 11,9 11 6 NNE 1013,1 -
16.04.2018 10:00:00 14,8 12,2 4 2 NNE 1012,8 -
16.04.2018 09:00:00 12,5 11,0 4 2 N 1012,6 -
16.04.2018 08:00:00 10,3 9,5 8 4 NNE 1012,3 20
16.04.2018 07:00:00 10,5 9,2 0 0 N 1012,0 -
16.04.2018 06:00:00 10,6 9,4 0 0 N 1012,0 -
16.04.2018 05:00:00 9,8 8,7 0 0 N 1012,1 18
16.04.2018 04:00:00 9,9 8,7 5 3 N 1012,2 -
16.04.2018 03:00:00 10,3 8,7 2 1 N 1012,5 -
16.04.2018 02:00:00 10,8 9,0 5 3 W 1012,6 20
16.04.2018 01:00:00 11,5 9,9 2 1 ENE 1012,8 -
16.04.2018 00:00:00 12,8 10,6 0 0 N 1013,2 -
15.04.2018 23:00:00 14,1 11,3 0 0 N 1013,1 -
15.04.2018 22:00:00 14,4 11,2 2 1 ENE 1012,8 -
15.04.2018 21:00:00 15,9 11,4 8 4 SSW 1012,1 -
15.04.2018 20:00:00 17,3 11,4 8 4 SSW 1011,3 -
15.04.2018 19:00:00 18,2 9,1 15 8 S 1011,0 -
15.04.2018 18:00:00 19,9 10,5 15 8 SSW 1010,4 -
15.04.2018 17:00:00 20,3 9,1 18 10 S 1010,2 20
15.04.2018 16:00:00 22,0 9,4 22 12 S 1010,5 -
15.04.2018 15:00:00 22,9 7,8 11 6 SSE 1010,3 -
15.04.2018 14:00:00 22,5 10,4 8 4 SE 1010,6 20
15.04.2018 13:00:00 21,5 7,3 8 4 S 1011,5 -
15.04.2018 12:00:00 19,8 10,4 4 2 SSW 1012,2 -
15.04.2018 11:00:00 17,6 12,6 8 4 WSW 1012,9 20
15.04.2018 10:00:00 13,4 10,0 8 4 S 1013,5 -
15.04.2018 09:00:00 10,6 9,4 4 2 ENE 1013,7 -
15.04.2018 08:00:00 9,5 8,7 8 4 W 1013,6 15
15.04.2018 07:00:00 9,3 8,4 0 0 N 1013,4 -
15.04.2018 06:00:00 9,7 8,3 0 0 N 1013,1 -
15.04.2018 05:00:00 9,5 8,3 4 2 NNE 1013,5 -
15.04.2018 04:00:00 10,7 8,1 4 2 N 1013,9 -
15.04.2018 03:00:00 11,6 8,8 2 1 NNE 1014,3 -
15.04.2018 02:00:00 12,6 8,0 11 6 NW 1014,5 20
15.04.2018 01:00:00 12,6 7,9 11 6 NW 1015,1 -
15.04.2018 00:00:00 12,5 8,4 9 5 NW 1015,5 -
14.04.2018 23:00:00 12,3 8,2 9 5 NW 1016,1 30
14.04.2018 22:00:00 12,2 8,7 8 4 NW 1016,4 -
14.04.2018 21:00:00 12,5 9,6 0 0 N 1016,4 -

tt = Température de l'air
td = dewpoint
ff = Vitesse du vent
dd = Direction du vent
ppp = reduced air pressure
vv = visibility

stations d'obs. à proximité